Weather History for Douglas, WY

Change the Weather History Date:

Friday, February 22, 2013

  Actual Average Record
Temperature  
Mean Temperature 25 °F 28 °F  
Max Temperature 36 °F 42 °F 59 °F (2002)
Min Temperature 14 °F 15 °F -6 °F (2010)
Degree Days  
Heating Degree Days 40 37  
Month to date heating degree days 846 856  
Since 1 July heating degree days 4772 5187  
Cooling Degree Days 0 0  
Month to date cooling degree days 0 0  
Year to date cooling degree days 0 0  
Moisture  
Dew Point 12 °F    
Average Humidity 63    
Maximum Humidity 88    
Minimum Humidity 38    
Precipitation  
Precipitation T in 0.02 in 0.16 in (2012)
Month to date precipitation 0.11 0.33  
Year to date precipitation 0.20 0.71  
Sea Level Pressure  
Sea Level Pressure 29.96 in    
Wind  
Wind Speed 10 mph (WNW)    
Max Wind Speed 23 mph    
Max Gust Speed 26 mph    
Visibility 10 miles    
Events Snow    
T = Trace of Precipitation, MM = Missing Value Source: NWS Daily Summary

Daily Weather History Graph

Daily Weather History Graph

Search for Another Location

Airport:

Trip Planner

Search our weather history database for the weather conditions in past years. The results will help you decide how hot, cold, wet, or windy it might be!

Date:

Astronomy

Feb. 22, 2013 Rise Set
Actual Time 6:47 AM MST 5:42 PM MST
Civil Twilight 6:19 AM MST 6:11 PM MST
Nautical Twilight 5:46 AM MST 6:44 PM MST
Astronomical Twilight 5:13 AM MST 7:16 PM MST
Moon 2:54 PM MST (2/22) 4:37 AM MST (2/22)
Length of Visible Light 11h 52m
Length of Day
10h 54m
Waxing Gibbous, 90% of the Moon is Illuminated
Feb 22
Waxing Gibbous
Feb 25
Full
Mar 4
Last Quarter
Mar 11
New
Mar 19
First Quarter

Hourly Weather History & Observations

Time (MST) Temp. Windchill Dew Point Humidity Pressure Visibility Wind Dir Wind Speed Gust Speed Precip Events Conditions
12:53 AM 19.0 °F 11.1 °F 16.0 °F 88% 29.98 in 10.0 mi NW 5.8 mph - N/A   Scattered Clouds
1:53 AM 17.1 °F 4.3 °F 12.0 °F 81% 29.98 in 10.0 mi NW 11.5 mph - N/A   Clear
2:53 AM 16.0 °F 2.9 °F 12.0 °F 84% 29.97 in 10.0 mi NW 11.5 mph - N/A   Clear
3:53 AM 14.0 °F 6.5 °F 10.0 °F 84% 29.99 in 10.0 mi NW 4.6 mph - N/A   Clear
4:53 AM 14.0 °F 1.2 °F 10.0 °F 84% 30.01 in 10.0 mi NNW 10.4 mph - N/A   Mostly Cloudy
5:53 AM 16.0 °F 4.4 °F 10.9 °F 81% 30.01 in 10.0 mi North 9.2 mph - N/A   Overcast
6:53 AM 18.0 °F 5.4 °F 12.9 °F 81% 30.01 in 10.0 mi NW 11.5 mph - N/A   Mostly Cloudy
7:53 AM 21.0 °F 12.4 °F 15.1 °F 78% 30.02 in 10.0 mi NW 6.9 mph - N/A   Clear
8:53 AM 25.0 °F 14.8 °F 17.1 °F 72% 30.03 in 10.0 mi NW 10.4 mph - N/A   Mostly Cloudy
9:53 AM 28.9 °F 17.3 °F 18.0 °F 64% 30.01 in 10.0 mi WNW 16.1 mph - N/A   Overcast
10:53 AM 30.0 °F 19.1 °F 18.0 °F 61% 30.02 in 10.0 mi WNW 15.0 mph - 0.01 in   Overcast
11:53 AM 30.9 °F 22.8 °F 12.0 °F 46% 30.00 in 10.0 mi West 9.2 mph - N/A   Scattered Clouds
12:53 PM 30.9 °F 21.2 °F 17.1 °F 57% 29.99 in 7.0 mi NNW 12.7 mph - 0.00 in Snow Light Snow
1:53 PM 33.1 °F 24.9 °F 14.0 °F 46% 29.97 in 10.0 mi WNW 10.4 mph - 0.00 in   Overcast
2:53 PM 33.1 °F 23.4 °F 10.9 °F 40% 29.95 in 10.0 mi WNW 13.8 mph 24.2 mph N/A   Overcast
3:53 PM 32.0 °F 20.8 °F 12.9 °F 45% 29.96 in 10.0 mi West 17.3 mph 24.2 mph N/A   Scattered Clouds
4:53 PM 32.0 °F 20.1 °F 10.9 °F 42% 29.95 in 10.0 mi West 19.6 mph - N/A   Clear
5:53 PM 28.0 °F 18.1 °F 10.9 °F 49% 29.96 in 10.0 mi WSW 11.5 mph - N/A   Clear
6:53 PM 24.1 °F 16.0 °F 9.0 °F 53% 29.95 in 10.0 mi WSW 6.9 mph - N/A   Clear
7:53 PM 24.1 °F 17.0 °F 9.0 °F 53% 29.93 in 10.0 mi SW 5.8 mph - N/A   Clear
8:53 PM 23.0 °F 15.8 °F 10.0 °F 58% 29.90 in 10.0 mi WSW 5.8 mph - N/A   Clear
9:53 PM 23.0 °F 18.4 °F 10.0 °F 58% 29.87 in 10.0 mi West 3.5 mph - N/A   Clear
10:53 PM 24.1 °F 19.7 °F 10.0 °F 55% 29.83 in 10.0 mi NW 3.5 mph - N/A   Clear
11:53 PM 21.9 °F 15.7 °F 10.0 °F 60% 29.82 in 10.0 mi WNW 4.6 mph - N/A   Clear